Location: Nasgenstadt
(48.2786°N, 9.7553°E)
Time: 03:20:34
(UTC+02:00)

STARLINK-2691 - Pass Details

Date: 01 August 2021
Orbit: 546 x 548 km, 53.1° (Epoch: 24 September)

Event Time Altitude Azimuth Distance (km) Brightness Sun altitude
Rises 21:24:06 0° 292° (WNW) 2,726 9.4 -4.6°
Reaches altitude 10° 21:26:36 10° 280° (W) 1,828 7.6 -5.0°
Maximum altitude 21:30:03 25° 224° (SW) 1,119 5.3 -5.5°
Drops below altitude 10° 21:33:28 10° 168° (SSE) 1,817 5.8 -5.9°
Enters shadow 21:35:04 - 158° (SSE) 2,376 6.3 -6.1°
